Wind_Speed
13 12 12 12 12 10 9 8 7 5 4 4 4 5 6 6 7 8 8 9 10 9 10 10 10 10 10 9 10 10 10 10 10 11 11 11 13 14 13 13 11 10 11
13 13 12 12 12 11 10 8 7 5 4 3 2 3 4 5 6 6 7 8 9 9 9 9 10 10 9 9 9 10 10 9 9 10 10 10 12 13 13 12 12 11 10
14 14 13 13 12 12 11 9 8 6 4 3 2 1 2 3 5 5 6 7 8 8 8 9 10 10 10 9 9 9 10 9 10 10 10 11 12 13 12 12 12 11 11
15 14 14 14 13 13 12 11 9 7 6 5 3 2 1 2 3 4 5 5 6 7 7 8 8 9 9 9 9 9 10 9 10 11 12 12 12 12 11 12 12 12 11
15 15 15 15 15 15 14 12 11 9 8 7 5 4 3 3 3 4 4 4 4 5 6 7 7 7 8 8 9 9 8 9 9 11 13 13 13 12 11 11 13 13 13
15 15 15 15 16 16 15 14 13 11 10 9 8 7 6 5 4 4 3 3 3 4 5 6 6 6 6 7 9 8 9 8 9 11 12 13 12 12 11 11 12 14 14
15 15 15 15 15 16 15 15 14 13 12 11 10 9 8 7 6 4 3 3 3 4 4 3 4 5 4 5 6 7 7 8 8 9 10 11 11 10 10 11 11 13 14
15 15 16 16 15 15 15 15 14 13 13 12 12 11 9 8 7 6 5 4 4 3 3 2 2 3 3 4 5 6 7 8 8 9 9 9 9 9 10 11 11 13 15
15 15 16 16 15 15 15 15 14 14 13 13 12 12 10 9 8 7 6 5 4 3 2 1 1 2 3 3 4 5 6 8 9 10 9 10 10 10 10 12 13 14 15
14 15 16 16 16 15 15 14 15 14 14 13 13 12 11 10 9 8 7 6 6 5 3 2 1 1 1 3 4 5 6 7 8 10 10 10 10 11 12 13 13 13 14
14 15 16 16 16 15 15 14 14 14 13 13 12 12 11 10 10 9 8 7 6 6 4 3 2 1 1 1 3 5 6 6 7 8 10 10 11 11 13 14 14 14 14
13 14 15 16 16 16 15 15 14 13 13 12 12 11 11 10 10 9 8 7 7 6 5 4 3 2 2 2 3 4 6 7 8 8 9 10 11 12 14 14 15 14 15
12 13 14 15 15 15 15 15 14 13 13 13 12 11 10 10 10 9 9 8 7 7 6 5 4 3 3 3 3 4 5 7 8 9 10 12 12 13 14 15 16 16 16
11 12 12 13 14 14 14 14 14 13 12 12 12 11 11 10 10 10 9 8 8 7 7 6 6 5 4 4 4 4 5 6 8 9 11 12 14 15 16 17 17 18 19
10 11 12 12 13 13 13 13 13 13 12 12 11 11 11 10 10 10 9 8 7 7 7 7 7 6 5 5 5 6 6 7 8 9 10 12 14 15 16 18 19 19 20
8 9 10 11 12 12 12 12 12 12 12 11 11 10 10 10 10 10 9 9 9 8 8 8 8 8 7 7 7 7 7 8 9 10 11 12 13 15 16 17 19 20 22
7 8 9 10 11 11 12 12 12 12 12 11 11 10 10 10 10 10 10 10 10 10 10 10 9 9 9 9 9 9 10 11 12 13 14 14 15 16 18 19 20 21 22
6 8 9 10 10 10 11 11 11 12 12 12 11 11 11 11 11 11 11 11 12 12 11 11 11 11 11 11 11 12 12 13 14 15 16 17 18 18 19 20 21 22 23
6 7 9 10 10 10 11 11 11 11 12 12 12 12 12 12 13 13 13 13 13 13 13 13 13 13 13 13 13 14 15 16 16 17 18 19 20 20 21 22 23 24 25
6 7 8 9 10 11 11 11 12 12 13 13 13 13 13 14 14 14 14 15 15 16 16 16 16 16 16 17 17 17 17 18 19 21 21 22 23 23 24 25 25 26 27
7 8 8 9 10 11 12 12 13 13 14 14 14 15 15 16 16 16 16 17 18 18 18 18 19 19 19 19 20 20 21 22 23 24 25 25 26 26 27 28 28 28 29
8 9 9 10 11 12 13 13 14 15 15 16 16 16 17 18 18 19 19 20 20 20 21 21 22 22 22 23 23 24 25 26 26 27 28 29 29 29 29 30 31 31 31
10 10 11 11 12 13 14 15 16 17 17 18 18 18 19 20 20 21 21 22 23 23 24 24 24 24 25 26 27 28 29 30 31 31 32 33 33 33 33 33 34 34 34
12 12 13 14 14 15 16 17 18 18 19 19 20 20 21 22 23 23 24 25 26 26 27 27 28 28 29 30 30 32 33 34 34 35 36 37 36 37 37 37 38 38 38
14 15 15 16 17 17 18 18 19 20 21 22 22 23 23 24 25 26 26 27 28 29 30 30 31 32 33 33 35 36 37 38 38 38 40 41 41 41 41 41 42 43 43
16 17 17 18 19 19 20 21 21 22 23 24 24 25 26 27 28 28 29 29 30 32 33 33 34 36 36 37 38 40 40 41 41 41 43 44 45 45 44 44 46 47 47
Wind_Direction
4 2 1 1 358 353 347 341 337 329 321 299 271 255 251 242 233 228 227 226 226 227 229 233 228 228 229 227 225 225 224 226 224 220 215 210 209 209 203 201 195 192 186
10 7 5 6 5 3 360 357 352 346 341 326 290 260 248 232 223 220 221 221 223 226 229 230 224 225 226 223 222 223 225 225 220 214 208 204 204 202 198 197 195 193 190
15 14 14 14 12 12 11 11 11 10 4 356 345 298 239 218 212 209 212 218 222 226 227 227 225 224 226 225 221 218 222 222 220 213 205 202 200 199 196 198 199 196 192
21 22 23 22 21 21 21 23 26 31 33 30 36 56 130 172 186 192 199 208 217 224 225 222 223 225 228 229 227 222 220 220 218 213 210 206 202 200 199 203 202 202 196
25 26 27 27 27 28 28 31 35 40 43 47 55 64 89 121 145 165 181 193 205 212 212 214 220 226 225 229 225 220 216 216 215 207 207 204 203 205 206 207 207 206 199
28 28 29 30 30 31 34 38 44 48 50 54 60 64 74 90 111 136 156 172 184 195 199 205 215 222 223 227 226 220 215 207 206 203 203 202 201 206 208 207 206 201 198
32 31 32 32 33 36 40 44 49 53 54 55 58 64 73 83 92 106 115 132 149 163 175 188 204 215 224 229 224 219 211 206 205 203 203 201 204 206 210 205 199 197 199
34 34 34 35 38 39 42 46 50 53 55 56 60 64 69 74 82 85 88 102 111 119 138 162 195 208 224 234 221 218 214 211 212 209 211 209 214 210 207 202 200 201 204
36 37 37 38 39 40 44 46 48 52 55 57 60 63 66 71 75 76 79 83 88 94 111 140 165 199 226 236 231 226 226 221 216 216 219 220 220 218 212 209 210 211 210
37 38 38 39 40 42 43 45 48 51 54 56 58 60 63 66 70 71 72 75 76 72 70 75 74 177 222 239 236 234 233 232 223 221 225 225 227 225 222 219 219 216 217
38 39 39 40 41 41 42 43 45 49 51 53 55 57 59 61 62 65 66 67 65 59 56 50 33 10 300 270 251 245 243 237 235 232 230 232 234 232 232 230 227 226 226
38 38 39 40 40 41 42 42 43 47 50 52 53 53 54 55 55 56 56 57 53 49 48 42 33 10 339 301 277 252 246 245 246 244 241 240 240 240 241 238 232 233 233
37 36 36 37 37 38 41 42 43 47 48 48 48 48 48 47 46 47 47 45 42 40 39 32 20 3 346 328 304 276 261 252 251 252 251 248 248 249 247 242 239 238 238
36 35 35 35 35 36 37 39 41 42 42 42 43 43 41 40 40 38 36 34 30 25 20 12 2 348 335 321 311 294 276 266 262 261 259 257 254 254 252 248 245 245 244
33 34 34 33 33 34 34 34 35 37 37 35 34 34 35 33 31 27 25 22 18 11 3 356 350 339 324 312 305 296 282 275 271 273 271 266 263 261 257 254 252 250 248
29 30 29 29 30 29 29 30 29 29 29 27 25 23 22 20 18 14 12 9 3 359 353 344 339 335 325 312 301 292 285 281 277 275 274 274 271 267 264 260 257 254 253
18 20 22 22 23 24 24 24 25 23 20 18 15 13 10 6 3 359 355 352 349 345 340 335 330 325 320 310 302 296 290 285 281 280 278 278 277 274 269 265 264 262 259
7 10 12 12 12 12 14 15 16 15 13 11 8 6 2 358 354 348 344 341 338 335 331 328 323 317 313 309 304 297 292 290 288 286 283 281 279 279 275 271 270 268 265
352 358 3 4 3 2 2 3 2 2 1 360 359 357 354 351 346 341 337 334 331 328 325 322 318 313 308 306 302 298 294 292 290 288 286 284 281 280 278 275 272 269 267
335 343 349 352 353 354 352 352 350 350 349 348 347 345 343 340 339 336 333 330 327 324 320 318 315 311 305 301 299 296 295 291 289 287 285 283 281 280 278 277 274 271 268
318 326 332 338 342 344 345 343 342 341 339 338 336 335 334 332 331 329 325 323 323 320 318 315 312 310 306 302 298 295 294 293 291 288 285 283 281 279 277 275 274 272 270
303 313 319 325 329 333 336 336 334 334 333 332 330 328 328 327 326 323 320 319 318 317 314 312 310 308 306 303 299 297 295 292 290 288 287 285 282 280 278 276 274 272 271
295 302 308 313 318 322 326 328 328 329 328 327 325 324 323 322 321 320 318 317 316 314 312 311 308 306 304 302 299 298 297 294 292 289 287 284 282 280 278 276 274 273 271
291 297 301 305 309 313 316 318 321 322 322 322 321 319 318 318 317 316 315 314 314 312 311 308 306 305 304 302 300 298 297 295 294 292 289 286 283 281 278 276 274 273 271
289 293 297 300 304 307 309 312 314 316 317 318 317 316 315 314 314 313 312 312 312 312 310 308 306 305 304 302 301 299 297 295 292 291 289 288 285 282 279 277 275 273 271
287 291 295 298 301 304 306 308 310 312 313 314 313 313 312 312 312 311 310 311 311 311 309 307 305 304 303 301 300 299 297 296 293 291 290 289 287 284 280 278 276 274 272
Height
5866 5863 5861 5859 5856 5854 5852 5851 5850 5849 5849 5848 5848 5849 5849 5850 5852 5853 5855 5857 5859 5861 5863 5865 5866 5868 5870 5872 5873 5875 5876 5877 5877 5876 5875 5876 5880 5885 5889 5892 5894 5897 5898
5866 5863 5861 5858 5856 5854 5852 5850 5849 5848 5848 5847 5847 5848 5848 5849 5850 5852 5854 5856 5858 5860 5862 5863 5865 5868 5869 5871 5872 5874 5875 5876 5876 5876 5876 5877 5880 5884 5888 5891 5894 5896 5898
5866 5863 5861 5859 5856 5854 5851 5850 5848 5847 5847 5846 5846 5847 5847 5848 5849 5851 5853 5855 5857 5859 5861 5863 5864 5867 5868 5870 5871 5873 5874 5875 5875 5876 5877 5879 5882 5885 5888 5891 5893 5896 5898
5867 5864 5862 5859 5857 5854 5852 5850 5849 5848 5847 5846 5846 5846 5847 5848 5849 5851 5853 5855 5856 5858 5860 5862 5864 5866 5868 5869 5871 5872 5873 5874 5874 5875 5877 5880 5883 5885 5888 5890 5892 5895 5897
5868 5865 5863 5861 5858 5856 5853 5852 5850 5849 5848 5847 5847 5847 5847 5848 5849 5851 5853 5854 5856 5858 5859 5861 5863 5865 5867 5868 5870 5871 5872 5873 5873 5874 5876 5879 5882 5885 5886 5888 5890 5893 5896
5870 5867 5865 5862 5860 5857 5855 5853 5851 5850 5849 5849 5848 5848 5848 5849 5850 5852 5853 5854 5856 5858 5859 5861 5863 5865 5866 5868 5869 5871 5872 5873 5874 5874 5876 5879 5882 5884 5884 5885 5887 5890 5894
5871 5869 5867 5864 5862 5859 5857 5855 5854 5853 5852 5851 5850 5850 5850 5850 5851 5852 5854 5855 5857 5858 5859 5861 5863 5864 5866 5867 5869 5870 5872 5874 5875 5876 5878 5880 5882 5883 5883 5884 5886 5889 5893
5874 5871 5869 5866 5864 5862 5860 5858 5857 5855 5854 5853 5853 5852 5852 5853 5853 5854 5855 5856 5857 5858 5860 5861 5863 5864 5866 5867 5868 5870 5872 5874 5875 5877 5879 5880 5882 5883 5884 5885 5887 5890 5893
5876 5873 5871 5869 5866 5864 5863 5861 5859 5858 5857 5856 5856 5855 5855 5855 5855 5856 5857 5857 5858 5859 5861 5862 5863 5864 5866 5867 5868 5870 5871 5873 5875 5877 5879 5881 5882 5884 5885 5886 5888 5891 5894
5878 5876 5873 5871 5869 5867 5865 5864 5862 5861 5860 5859 5858 5858 5858 5857 5858 5858 5859 5859 5860 5860 5861 5862 5863 5864 5866 5867 5868 5869 5871 5873 5875 5877 5878 5880 5882 5884 5885 5887 5888 5891 5893
5880 5878 5876 5873 5871 5870 5868 5866 5865 5863 5862 5861 5861 5861 5860 5860 5860 5860 5861 5861 5861 5861 5862 5863 5864 5864 5866 5866 5868 5869 5871 5872 5874 5876 5877 5879 5881 5883 5884 5886 5888 5890 5891
5882 5880 5878 5876 5874 5872 5870 5869 5867 5866 5865 5864 5864 5863 5863 5863 5862 5862 5863 5862 5862 5863 5863 5863 5864 5864 5865 5866 5867 5868 5870 5871 5873 5875 5876 5878 5880 5881 5883 5884 5886 5888 5889
5884 5882 5880 5879 5877 5875 5873 5871 5870 5869 5868 5867 5866 5866 5865 5865 5864 5864 5864 5864 5864 5864 5864 5864 5864 5864 5865 5865 5866 5867 5868 5870 5871 5873 5875 5876 5878 5879 5880 5882 5883 5885 5887
5885 5884 5882 5881 5879 5877 5875 5874 5873 5871 5870 5870 5869 5868 5867 5867 5866 5866 5866 5865 5865 5865 5864 5864 5864 5864 5864 5865 5866 5866 5867 5868 5870 5871 5872 5873 5875 5876 5877 5878 5880 5881 5883
5887 5885 5884 5882 5881 5879 5878 5876 5875 5874 5873 5872 5871 5870 5869 5869 5868 5868 5867 5866 5866 5865 5865 5864 5864 5863 5863 5864 5864 5865 5866 5866 5867 5868 5869 5870 5871 5872 5874 5875 5876 5877 5879
5888 5887 5886 5884 5882 5881 5880 5878 5877 5876 5875 5874 5872 5871 5871 5870 5869 5869 5868 5867 5866 5866 5865 5864 5863 5862 5862 5862 5862 5863 5863 5864 5865 5866 5866 5867 5868 5869 5870 5871 5872 5872 5873
5889 5888 5887 5885 5884 5882 5881 5879 5878 5877 5876 5875 5874 5872 5871 5871 5870 5869 5868 5867 5865 5865 5864 5863 5861 5860 5860 5860 5860 5861 5861 5862 5862 5863 5863 5864 5864 5864 5865 5866 5866 5867 5868
5889 5888 5887 5886 5885 5883 5882 5880 5879 5878 5877 5875 5874 5873 5872 5870 5869 5868 5867 5865 5864 5863 5862 5861 5859 5858 5858 5857 5857 5858 5858 5858 5859 5859 5859 5859 5859 5860 5860 5860 5861 5861 5862
5889 5888 5887 5886 5885 5883 5882 5881 5880 5878 5877 5876 5874 5873 5871 5870 5869 5867 5865 5864 5862 5860 5859 5858 5857 5856 5855 5854 5854 5854 5854 5854 5854 5854 5854 5854 5854 5854 5854 5854 5854 5854 5855
5888 5888 5887 5886 5884 5883 5882 5880 5879 5878 5876 5875 5874 5872 5871 5869 5867 5865 5863 5861 5859 5858 5856 5855 5853 5852 5851 5850 5849 5849 5849 5849 5848 5848 5848 5848 5847 5847 5847 5847 5847 5847 5847
5887 5887 5886 5885 5884 5882 5881 5879 5878 5877 5875 5874 5872 5871 5869 5867 5865 5863 5860 5858 5856 5854 5852 5851 5849 5847 5846 5845 5844 5843 5843 5842 5842 5841 5840 5840 5839 5839 5839 5838 5838 5838 5838
5885 5885 5884 5883 5882 5881 5879 5878 5876 5875 5873 5872 5870 5868 5866 5864 5862 5859 5857 5855 5852 5850 5848 5846 5844 5842 5840 5839 5838 5836 5835 5834 5834 5833 5831 5831 5830 5830 5829 5829 5829 5829 5829
5883 5882 5882 5881 5880 5879 5877 5876 5874 5873 5871 5869 5867 5865 5863 5861 5859 5856 5853 5850 5848 5845 5843 5840 5838 5836 5834 5833 5831 5829 5827 5825 5823 5822 5820 5820 5819 5818 5818 5818 5818 5818 5818
5880 5879 5879 5878 5877 5876 5874 5873 5871 5869 5868 5866 5864 5862 5859 5857 5854 5852 5849 5846 5843 5840 5837 5834 5832 5829 5827 5824 5822 5819 5817 5814 5812 5809 5807 5806 5806 5805 5805 5805 5805 5805 5805
5876 5876 5875 5874 5873 5872 5871 5869 5868 5866 5864 5861 5859 5857 5854 5852 5849 5846 5843 5840 5837 5834 5830 5827 5824 5821 5818 5815 5812 5809 5805 5803 5801 5798 5795 5793 5792 5791 5791 5791 5790 5790 5790
5872 5871 5871 5870 5869 5868 5866 5864 5863 5861 5859 5856 5854 5851 5848 5845 5842 5839 5837 5834 5830 5827 5823 5819 5816 5812 5808 5805 5801 5797 5793 5790 5788 5786 5782 5779 5777 5775 5776 5776 5774 5773 5773